Location: Unspecified
(49.2170°N, 0.0000°E)
Time: 17:13:02
(UTC+00:00)

A-11 Canister half - Pass Details

Date: 19 June 2019
Orbit: 1526 x 1683 km, 47.3° (Epoch: 17 July)

Event Time Altitude Azimuth Distance (km) Brightness Sun altitude
Rises 03:50:19 0° 196° (SSW) 4,743 11.1 -1.3°
Reaches altitude 10° 03:54:05 10° 184° (S) 3,739 10.6 -0.9°
Maximum altitude 04:01:16 25° 134° (SE) 2,705 10.5 0.1°
Drops below altitude 10° 04:08:20 10° 83° (E) 3,698 12.2 1.0°
Sets 04:12:01 0° 71° (ENE) 4,681 13.4 1.5°
